Bogalusa, LA

7:28 AM CDT on August 27, 2016 (GMT -0500)
Carr Memorial

Weather History for KBXA - February, 2013

Change the Weather History Date:

Tuesday, February 19, 2013

  Actual Average Record
Temperature  
Mean Temperature 50 °F -  
Max Temperature 63 °F 64 °F 81 °F (2014)
Min Temperature 36 °F 42 °F 29 °F (2015)
Degree Days  
Heating Degree Days 15    
Moisture  
Dew Point 32 °F    
Average Humidity 56    
Maximum Humidity 97    
Minimum Humidity 4    
Precipitation  
Precipitation 0.76 in - - ()
Sea Level Pressure  
Sea Level Pressure 30.15 in    
Wind  
Wind Speed 10 mph (North)    
Max Wind Speed 17 mph    
Max Gust Speed 28 mph    
Visibility 10 miles    
Events Rain , Thunderstorm    
Averages and records for this station are not official NWS values.
T = Trace of Precipitation, MM = Missing Value Source: NWS Daily Summary

Daily Weather History Graph

Daily Weather History Graph

Search for Another Location

Airport or City:

Trip Planner

Search our weather history database for the weather conditions in past years. The results will help you decide how hot, cold, wet, or windy it might be!

Date:

Astronomy

Feb. 19, 2013 Rise Set
Actual Time 6:36 AM CST 5:50 PM CST
Civil Twilight 6:11 AM CST 6:15 PM CST
Nautical Twilight 5:43 AM CST 6:43 PM CST
Astronomical Twilight 5:15 AM CST 7:11 PM CST
Moon 12:34 PM CST (2/19) 1:56 AM CST (2/19)
Length of Visible Light 12h 03m
Length of Day
11h 14m
Waxing Gibbous, 67% of the Moon is Illuminated
Feb 19
Waxing Gibbous
Feb 25
Full
Mar 4
Last Quarter
Mar 11
New
Mar 19
First Quarter

Hourly Weather History & Observations

Time (CST) Temp. Windchill Dew Point Humidity Pressure Visibility Wind Dir Wind Speed Gust Speed Precip Events Conditions
12:15 AM 60.8 °F - 59.2 °F 94% 29.98 in 7.0 mi South 11.5 mph - 0.03 in Rain Rain
12:35 AM 60.8 °F - 59.5 °F 96% 29.99 in 5.0 mi WNW 9.2 mph - 0.08 in Rain Rain
12:55 AM 60.6 °F - 59.2 °F 95% 29.99 in 3.0 mi South 5.8 mph - 0.38 in Rain , Thunderstorm Heavy Thunderstorms and Rain
1:15 AM 60.6 °F - 59.9 °F 97% 30.00 in 3.0 mi SW 11.5 mph - 0.16 in Rain , Thunderstorm Heavy Thunderstorms and Rain
1:35 AM 61.2 °F - 60.1 °F 96% 30.00 in 7.0 mi SW 13.8 mph - 0.25 in Rain , Thunderstorm Thunderstorms and Rain
1:55 AM 62.4 °F - 60.1 °F 92% 29.99 in 10.0 mi SW 11.5 mph 17.3 mph 0.28 in Rain Light Rain
2:15 AM 59.9 °F - 57.2 °F 91% 29.99 in 10.0 mi SSW 8.1 mph - N/A   Unknown
2:35 AM 58.8 °F - 57.2 °F 94% 29.98 in 10.0 mi WSW 3.5 mph - N/A Thunderstorm Unknown
2:55 AM 58.5 °F - 57.2 °F 96% 30.01 in 10.0 mi NNW 12.7 mph - N/A Thunderstorm Unknown
3:15 AM 59.9 °F - 58.5 °F 95% 30.00 in 4.0 mi WSW 5.8 mph - 0.08 in Rain Heavy Rain
3:35 AM 59.4 °F - 58.3 °F 96% 30.01 in 10.0 mi West 3.5 mph - 0.10 in   Unknown
3:55 AM 59.0 °F - 58.1 °F 97% 30.01 in 10.0 mi Calm Calm - 0.10 in   Unknown
4:15 AM 58.5 °F - 57.6 °F 97% 30.02 in 10.0 mi Calm Calm - N/A   Unknown
4:35 AM 58.3 °F - 57.6 °F 97% 30.03 in 10.0 mi West 3.5 mph - N/A   Unknown
4:55 AM 58.1 °F - 57.2 °F 97% 30.03 in 10.0 mi WNW 4.6 mph - N/A   Unknown
5:15 AM 57.6 °F - 56.8 °F 97% 30.05 in 10.0 mi NNW 8.1 mph - N/A   Unknown
5:35 AM 58.6 °F - 56.8 °F 94% 30.06 in 10.0 mi North 8.1 mph - N/A   Unknown
5:55 AM 58.1 °F - 55.8 °F 92% 30.08 in 10.0 mi North 10.4 mph - N/A   Unknown
6:15 AM 57.2 °F - 51.1 °F 80% 30.08 in 10.0 mi North 10.4 mph - N/A   Unknown
6:35 AM 55.9 °F - 53.6 °F 92% 30.10 in 10.0 mi North 8.1 mph - N/A   Unknown
6:55 AM 55.4 °F - 52.5 °F 90% 30.11 in 10.0 mi North 9.2 mph - N/A   Unknown
7:15 AM 55.0 °F - 46.9 °F 74% 30.13 in 10.0 mi North 11.5 mph - N/A   Unknown
7:35 AM 54.0 °F - 50.2 °F 87% 30.14 in 10.0 mi North 15.0 mph 20.7 mph N/A   Unknown
7:55 AM 53.8 °F - 47.8 °F 80% 30.16 in 10.0 mi North 15.0 mph 19.6 mph N/A   Unknown
8:15 AM 53.2 °F - 26.6 °F 36% 30.17 in 10.0 mi North 13.8 mph 27.6 mph N/A   Unknown
8:35 AM 53.6 °F - 27.3 °F 36% 30.18 in 10.0 mi North 17.3 mph - N/A   Clear
8:55 AM 53.8 °F - 27.3 °F 36% 30.19 in 10.0 mi North 17.3 mph 25.3 mph N/A   Clear
9:15 AM 54.3 °F - 27.3 °F 35% 30.19 in 10.0 mi NNE 17.3 mph 20.7 mph N/A   Clear
9:35 AM 54.5 °F - 25.5 °F 33% 30.20 in 10.0 mi North 17.3 mph 23.0 mph N/A   Clear
9:55 AM 55.4 °F - 27.5 °F 34% 30.21 in 10.0 mi North 15.0 mph 21.9 mph N/A   Clear
10:15 AM 56.1 °F - 24.8 °F 30% 30.22 in 10.0 mi North 16.1 mph 19.6 mph N/A   Clear
10:35 AM 56.5 °F - 23.9 °F 28% 30.22 in 10.0 mi North 13.8 mph - N/A   Clear
10:55 AM 58.1 °F - 23.9 °F 27% 30.22 in 10.0 mi North 9.2 mph 16.1 mph N/A   Clear
11:15 AM 58.5 °F - 18.5 °F 21% 30.22 in 10.0 mi North 11.5 mph - N/A   Clear
11:35 AM 59.4 °F - 17.6 °F 20% 30.23 in 10.0 mi NNE 8.1 mph 17.3 mph N/A   Clear
11:55 AM 60.1 °F - 10.0 °F 14% 30.22 in 10.0 mi North 13.8 mph - N/A   Clear
12:15 PM 60.8 °F - 10.8 °F 14% 30.21 in 10.0 mi North 8.1 mph - N/A   Clear
12:35 PM 60.8 °F - 0.7 °F 9% 30.22 in 10.0 mi North 9.2 mph - N/A   Clear
12:55 PM 61.7 °F - -5.1 °F 7% 30.21 in 10.0 mi NNE 10.4 mph 16.1 mph N/A   Clear
1:15 PM 62.1 °F - -5.1 °F 7% 30.19 in 10.0 mi NNE 11.5 mph 19.6 mph N/A   Clear
1:35 PM - - - N/A% 30.19 in 10.0 mi North 12.7 mph 19.6 mph N/A   Clear
1:55 PM 63.0 °F - -10.1 °F 5% 30.19 in 10.0 mi North 9.2 mph 16.1 mph N/A   Clear
2:15 PM - - - N/A% 30.19 in 10.0 mi North 17.3 mph 21.9 mph N/A   Clear
2:35 PM - - - N/A% 30.19 in 10.0 mi North 16.1 mph 26.5 mph N/A   Unknown
2:55 PM - - - N/A% 30.19 in 10.0 mi North 16.1 mph 23.0 mph N/A   Unknown
3:15 PM - - - N/A% 30.19 in 10.0 mi North 16.1 mph - N/A   Unknown
3:35 PM - - - N/A% 30.19 in 10.0 mi North 15.0 mph 18.4 mph N/A   Unknown
3:55 PM - - - N/A% 30.19 in 10.0 mi North 12.7 mph 19.6 mph N/A   Unknown
4:15 PM - - - N/A% 30.19 in 10.0 mi North 17.3 mph 24.2 mph N/A   Unknown
4:35 PM - - - N/A% 30.18 in 10.0 mi NNE 11.5 mph 17.3 mph N/A   Unknown
4:55 PM - - - N/A% 30.18 in 10.0 mi North 9.2 mph - N/A   Unknown
5:15 PM 59.2 °F - -20.0 °F 4% 30.18 in 10.0 mi North 10.4 mph - N/A   Unknown
5:35 PM 56.8 °F - -9.6 °F 6% 30.19 in 10.0 mi North 9.2 mph - N/A   Unknown
6:35 PM 50.7 °F - 7.7 °F 18% 30.20 in 10.0 mi North 3.5 mph - N/A   Unknown
6:55 PM 48.9 °F - 12.6 °F 23% 30.21 in 10.0 mi North 5.8 mph - N/A   Unknown
7:15 PM 47.8 °F - 15.1 °F 27% 30.21 in 10.0 mi North 5.8 mph - N/A   Unknown
7:55 PM 44.1 °F 42.5 °F 24.1 °F 45% 30.23 in 10.0 mi North 3.5 mph - N/A   Clear
8:15 PM 44.2 °F 41.8 °F 21.9 °F 41% 30.23 in 10.0 mi North 4.6 mph - N/A   Clear
8:35 PM 41.9 °F 38.2 °F 24.4 °F 50% 30.23 in 10.0 mi North 5.8 mph - N/A   Clear
8:55 PM 42.1 °F 39.2 °F 21.6 °F 44% 30.24 in 10.0 mi North 4.6 mph - N/A   Unknown
9:15 PM 41.9 °F 39.0 °F 20.8 °F 43% 30.25 in 10.0 mi NNW 4.6 mph - N/A   Unknown
9:35 PM 41.9 °F 38.2 °F 18.7 °F 39% 30.25 in 10.0 mi North 5.8 mph - N/A   Unknown
9:55 PM 40.3 °F - 20.3 °F 45% 30.25 in 10.0 mi Calm Calm - N/A   Clear
10:15 PM 39.4 °F 36.1 °F 21.4 °F 49% 30.25 in 10.0 mi North 4.6 mph - N/A   Clear
10:35 PM 39.4 °F - 22.1 °F 50% 30.25 in 10.0 mi Calm Calm - N/A   Unknown
10:55 PM 37.4 °F 34.9 °F 22.8 °F 56% 30.24 in 10.0 mi North 3.5 mph - N/A   Unknown
11:15 PM 39.4 °F 37.2 °F 20.3 °F 46% 30.26 in 10.0 mi NNW 3.5 mph - N/A   Unknown
11:35 PM 39.6 °F 37.4 °F 21.2 °F 48% 30.26 in 10.0 mi North 3.5 mph - N/A   Unknown
11:55 PM 36.5 °F - 27.5 °F 70% 30.26 in 10.0 mi Calm Calm - N/A   Unknown